Weather History for LKPR - December, 2011

Change the Weather History Date:

Saturday, December 10, 2011

  Actual Average Record
Temperature  
Mean Temperature 36 °F -  
Max Temperature 40 °F 34 °F 46 °F (1997)
Min Temperature 30 °F 25 °F 10 °F (2002)
Degree Days  
Heating Degree Days 30    
Moisture  
Dew Point 29 °F    
Average Humidity 81    
Maximum Humidity 87    
Minimum Humidity 65    
Precipitation  
Precipitation 0.00 in 0.03 in - ()
Sea Level Pressure  
Sea Level Pressure 29.91 in    
Wind  
Wind Speed 13 mph ()    
Max Wind Speed 18 mph    
Max Gust Speed -    
Visibility 6.6 miles    
Events Rain    
Averages and records for this station are not official NWS values.
T = Trace of Precipitation, MM = Missing Value Source: Averaged Metar Reports

Daily Weather History Graph

Daily Weather History Graph

Search for Another Location

Airport or City:

Trip Planner

Search our weather history database for the weather conditions in past years. The results will help you decide how hot, cold, wet, or windy it might be!

Date:

Astronomy

Dec. 10, 2011 Rise Set
Actual Time 7:50 AM CET 4:00 PM CET
Civil Twilight 7:12 AM CET 4:38 PM CET
Nautical Twilight 6:30 AM CET 5:20 PM CET
Astronomical Twilight 5:51 AM CET 5:59 PM CET
Moon 3:57 PM CET (12/10) 7:37 AM CET (12/10)
Length of Visible Light 9h 26m
Length of Day
8h 10m
Full, 100% of the Moon is Illuminated
Dec 10
Full
Dec 10
Full
Dec 18
Last Quarter
Dec 24
New
Jan 1
First Quarter

Hourly Weather History & Observations

Time (CET) Temp. Windchill Dew Point Humidity Pressure Visibility Wind Dir Wind Speed Gust Speed Precip Events Conditions
12:00 AM 33.8 °F 25.3 °F 30.2 °F 87% 29.89 in - SW 11.5 mph - N/A   Clear
12:30 AM 33.8 °F 23.5 °F 28.4 °F 81% 29.86 in - SW 16.1 mph - N/A   Clear
1:00 AM 33 °F - 29 °F 78% 29.94 in 31 mi SW 13.4 mph - -   Partly Cloudy
1:00 AM 33.8 °F 23.2 °F 28.4 °F 81% 29.89 in - SW 17.3 mph - N/A   Clear
1:30 AM 33.8 °F 23.5 °F 28.4 °F 81% 29.86 in - SW 16.1 mph - N/A   Clear
2:00 AM 33.8 °F 23.9 °F 28.4 °F 81% 29.89 in - SW 15.0 mph - N/A   Clear
2:30 AM 32.0 °F 22.5 °F 28.4 °F 87% 29.89 in - SSW 12.7 mph - N/A   Clear
3:00 AM 33.8 °F 25.3 °F 28.4 °F 81% 29.86 in - SW 11.5 mph - N/A   Clear
3:30 AM 33.8 °F 23.9 °F 28.4 °F 81% 29.86 in - SW 15.0 mph - N/A   Clear
4:00 AM 32.0 °F 22.1 °F 28.4 °F 87% 29.86 in - SSW 13.8 mph - N/A   Clear
4:30 AM 32.0 °F 22.1 °F 28.4 °F 87% 29.86 in - SSW 13.8 mph - N/A   Clear
5:00 AM 32.0 °F 22.5 °F 28.4 °F 87% 29.86 in - SW 12.7 mph - N/A   Clear
5:30 AM 32.0 °F 20.8 °F 28.4 °F 87% 29.86 in - SSW 17.3 mph - N/A   Clear
6:00 AM 32.0 °F 20.5 °F 28.4 °F 87% 29.86 in - SSW 18.4 mph - N/A   Clear
6:30 AM 32.0 °F 20.5 °F 28.4 °F 87% 29.86 in - SSW 18.4 mph - N/A   Clear
7:00 AM 32 °F - 29 °F 84% 29.94 in 31 mi SW 13.4 mph - -   Scattered Clouds
7:00 AM 32.0 °F 22.5 °F 28.4 °F 87% 29.86 in - SW 12.7 mph - N/A   Clear
7:30 AM 32.0 °F 23.0 °F 28.4 °F 87% 29.86 in 6.2 mi SW 11.5 mph - N/A   Partly Cloudy
8:00 AM 33.8 °F 24.3 °F 30.2 °F 87% 29.86 in 6.2 mi SSW 13.8 mph - N/A   Partly Cloudy
8:30 AM 33.8 °F 23.5 °F 30.2 °F 87% 29.89 in 6.2 mi SW 16.1 mph - N/A   Partly Cloudy
9:00 AM 35.6 °F 25.5 °F 30.2 °F 81% 29.89 in 6.2 mi SW 17.3 mph - N/A   Partly Cloudy
9:30 AM 35.6 °F 26.6 °F 32.0 °F 87% 29.89 in - SW 13.8 mph - N/A   Clear
10:00 AM 35.6 °F 25.9 °F 32.0 °F 87% 29.89 in 6.2 mi SW 16.1 mph - N/A Rain Light Rain
10:30 AM 35.6 °F 26.6 °F 32.0 °F 87% 29.89 in 6.2 mi SSW 13.8 mph - N/A Rain Light Rain
11:00 AM 37.4 °F 28.9 °F 33.8 °F 87% 29.89 in 6.2 mi SSW 13.8 mph - N/A Rain Light Rain
11:30 AM 37.4 °F 28.2 °F 33.8 °F 87% 29.89 in 6.2 mi SW 16.1 mph - N/A   Scattered Clouds
12:00 PM 37.4 °F 28.2 °F 33.8 °F 87% 29.89 in 6.2 mi SW 16.1 mph - N/A   Partly Cloudy
12:30 PM 39.2 °F 31.2 °F 33.8 °F 81% 29.89 in 6.2 mi SW 13.8 mph - N/A   Scattered Clouds
1:00 PM 39 °F - 33 °F 72% 29.94 in 16 mi SW 15.7 mph - -   Partly Cloudy
1:00 PM 39.2 °F 31.2 °F 33.8 °F 81% 29.89 in 6.2 mi SW 13.8 mph - N/A   Partly Cloudy
1:30 PM 39.2 °F 29.8 °F 32.0 °F 75% 29.89 in 6.2 mi SW 18.4 mph - N/A   Partly Cloudy
2:00 PM 39.2 °F 30.5 °F 30.2 °F 70% 29.89 in 6.2 mi WSW 16.1 mph - N/A   Partly Cloudy
2:30 PM 41.0 °F 32.2 °F 30.2 °F 65% 29.89 in 6.2 mi WSW 18.4 mph - N/A   Scattered Clouds
3:00 PM 39.2 °F 30.5 °F 30.2 °F 70% 29.89 in 6.2 mi WSW 16.1 mph - N/A   Scattered Clouds
3:30 PM 39.2 °F 30.8 °F 28.4 °F 65% 29.89 in 6.2 mi WSW 15.0 mph - N/A   Scattered Clouds
4:00 PM 35.6 °F 28.0 °F 28.4 °F 75% 29.92 in 6.2 mi West 10.4 mph - N/A   Partly Cloudy
4:30 PM 33.8 °F 27.0 °F 28.4 °F 81% 29.92 in 6.2 mi West 8.1 mph - N/A   Partly Cloudy
5:00 PM 32.0 °F 24.2 °F 28.4 °F 87% 29.92 in 6.2 mi WSW 9.2 mph - N/A   Partly Cloudy
5:30 PM 33.8 °F 26.4 °F 26.6 °F 75% 29.92 in 6.2 mi WSW 9.2 mph - N/A   Partly Cloudy
6:00 PM 33.8 °F 26.4 °F 26.6 °F 75% 29.95 in 6.2 mi WSW 9.2 mph - N/A   Partly Cloudy
6:30 PM 32.0 °F 24.2 °F 26.6 °F 80% 29.95 in 6.2 mi SW 9.2 mph - N/A   Partly Cloudy
7:00 PM 32 °F - 27 °F 74% 30.03 in 25 mi WSW 11.2 mph - -   Scattered Clouds
7:00 PM 32.0 °F 23.0 °F 26.6 °F 80% 29.95 in - SW 11.5 mph - N/A   Clear
7:30 PM 32.0 °F 22.1 °F 26.6 °F 80% 29.98 in - SW 13.8 mph - N/A   Clear
8:00 PM 32.0 °F 21.6 °F 26.6 °F 80% 29.95 in - SW 15.0 mph - N/A   Clear
8:30 PM 32.0 °F 22.1 °F 26.6 °F 80% 29.98 in - SW 13.8 mph - N/A   Clear
9:00 PM 32.0 °F 22.5 °F 26.6 °F 80% 29.98 in - SW 12.7 mph - N/A   Clear
9:30 PM 32.0 °F 21.6 °F 26.6 °F 80% 29.98 in - WSW 15.0 mph - N/A   Clear
10:00 PM 32.0 °F 21.6 °F 26.6 °F 80% 30.01 in - SW 15.0 mph - N/A   Clear
10:30 PM 32.0 °F 22.5 °F 26.6 °F 80% 30.01 in - SW 12.7 mph - N/A   Clear
11:00 PM 32.0 °F 22.5 °F 28.4 °F 87% 30.01 in - WSW 12.7 mph - N/A   Clear
11:30 PM 30.2 °F 19.8 °F 26.6 °F 86% 30.01 in - SW 13.8 mph - N/A   Clear